TimePST,TemperatureF,Dew PointF,Humidity,Sea Level PressureIn,VisibilityMPH,Wind Direction,Wind SpeedMPH,Gust SpeedMPH,PrecipitationIn,Events,Conditions,WindDirDegrees,DateUTC
12:53 AM,25.0,21.0,85,30.11,4.0,Calm,Calm,-,N/A,,Mostly Cloudy,0,2014-02-11 08:53:00
1:04 AM,25.0,21.0,85,30.06,4.0,Calm,Calm,-,N/A,,Mostly Cloudy,0,2014-02-11 09:04:00
1:15 AM,23.0,19.9,88,30.06,5.0,West,4.6,-,N/A,,Mostly Cloudy,260,2014-02-11 09:15:00
1:39 AM,21.9,19.0,89,30.04,4.0,Calm,Calm,-,N/A,,Mostly Cloudy,0,2014-02-11 09:39:00
1:53 AM,21.0,17.1,85,30.10,4.0,Variable,4.6,-,N/A,,Scattered Clouds,0,2014-02-11 09:53:00
2:10 AM,19.9,17.1,89,30.06,4.0,West,4.6,-,N/A,,Mostly Cloudy,260,2014-02-11 10:10:00
2:53 AM,21.0,18.0,88,30.11,5.0,West,5.8,-,N/A,,Mostly Cloudy,270,2014-02-11 10:53:00
3:53 AM,21.9,19.0,89,30.12,4.0,West,11.5,-,N/A,,Overcast,270,2014-02-11 11:53:00
4:36 AM,24.1,21.0,88,30.08,4.0,WSW,4.6,-,N/A,,Mostly Cloudy,250,2014-02-11 12:36:00
4:53 AM,21.9,19.9,92,30.15,4.0,WNW,6.9,-,N/A,,Partly Cloudy,300,2014-02-11 12:53:00
5:53 AM,23.0,19.0,85,30.16,5.0,Calm,Calm,-,N/A,,Clear,0,2014-02-11 13:53:00
6:53 AM,19.9,16.0,85,30.17,4.0,NE,3.5,-,N/A,,Clear,40,2014-02-11 14:53:00
7:24 AM,17.1,12.9,84,30.12,2.0,Calm,Calm,-,N/A,,Clear,0,2014-02-11 15:24:00
7:45 AM,15.1,12.9,91,30.11,1.8,Calm,Calm,-,N/A,,Partly Cloudy,0,2014-02-11 15:45:00
7:53 AM,18.0,15.1,88,30.16,1.5,Calm,Calm,-,N/A,,Partly Cloudy,0,2014-02-11 15:53:00
8:17 AM,17.1,12.9,84,30.10,1.0,East,3.5,-,N/A,,Mist,90,2014-02-11 16:17:00
8:19 AM,17.1,14.0,88,30.10,0.2,East,5.8,-,N/A,Fog,Light Freezing Fog,80,2014-02-11 16:19:00
8:31 AM,19.0,16.0,88,30.10,0.2,ENE,4.6,-,N/A,Fog,Light Freezing Fog,60,2014-02-11 16:31:00
8:53 AM,21.9,19.0,89,30.16,0.2,East,8.1,-,N/A,Fog,Light Freezing Fog,90,2014-02-11 16:53:00
9:04 AM,23.0,19.9,88,30.11,0.5,East,6.9,-,0.00,Fog-Snow,Light Snow,100,2014-02-11 17:04:00
9:49 AM,24.8,21.2,86,30.12,1.8,Calm,Calm,-,0.00,,Scattered Clouds,0,2014-02-11 17:49:00
9:50 AM,25.0,21.9,88,30.17,1.8,Calm,Calm,-,0.00,,Scattered Clouds,0,2014-02-11 17:50:00
9:57 AM,25.0,21.9,88,30.12,2.5,West,5.8,-,N/A,,Partly Cloudy,280,2014-02-11 17:57:00
10:12 AM,25.0,21.9,88,30.12,3.0,West,6.9,-,N/A,,Clear,260,2014-02-11 18:12:00
10:53 AM,28.0,23.0,81,30.17,4.0,West,8.1,-,N/A,,Haze,260,2014-02-11 18:53:00
11:53 AM,34.0,27.0,75,30.16,7.0,West,8.1,-,N/A,,Clear,270,2014-02-11 19:53:00
12:53 PM,39.0,30.0,70,30.14,8.0,West,4.6,-,N/A,,Clear,280,2014-02-11 20:53:00
1:53 PM,39.9,30.0,68,30.12,8.0,Calm,Calm,-,N/A,,Clear,0,2014-02-11 21:53:00
2:53 PM,37.9,30.0,73,30.12,6.0,East,4.6,-,N/A,,Haze,90,2014-02-11 22:53:00
3:53 PM,37.0,30.0,76,30.09,5.0,East,3.5,-,N/A,,Haze,100,2014-02-11 23:53:00
4:53 PM,37.0,30.0,76,30.08,5.0,ENE,3.5,-,N/A,,Haze,70,2014-02-12 00:53:00
5:53 PM,35.1,32.0,89,30.05,6.0,Calm,Calm,-,0.00,Rain,Light Rain,0,2014-02-12 01:53:00
6:53 PM,35.1,32.0,89,30.03,4.0,East,3.5,-,0.00,,Overcast,90,2014-02-12 02:53:00
7:53 PM,36.0,30.9,82,29.99,6.0,SE,5.8,-,N/A,,Haze,140,2014-02-12 03:53:00
8:08 PM,36.0,32.0,86,29.94,6.0,Calm,Calm,-,N/A,,Mostly Cloudy,0,2014-02-12 04:08:00
8:19 PM,35.1,30.9,85,29.93,6.0,SSE,3.5,-,N/A,,Overcast,160,2014-02-12 04:19:00
8:36 PM,37.0,32.0,82,29.92,7.0,South,3.5,-,N/A,,Overcast,180,2014-02-12 04:36:00
8:53 PM,35.1,30.9,85,29.94,5.0,SSE,6.9,-,N/A,,Overcast,160,2014-02-12 04:53:00
9:04 PM,34.0,30.9,89,29.90,5.0,East,3.5,-,N/A,,Overcast,100,2014-02-12 05:04:00
9:53 PM,35.1,32.0,89,29.91,5.0,South,4.6,-,N/A,,Overcast,170,2014-02-12 05:53:00
10:53 PM,35.1,32.0,89,29.88,3.0,WSW,5.8,-,0.01,Rain,Light Rain,240,2014-02-12 06:53:00
11:07 PM,34.0,32.0,92,29.83,2.5,West,5.8,-,0.02,Rain,Light Rain,260,2014-02-12 07:07:00
11:16 PM,35.1,32.0,89,29.82,3.0,WSW,5.8,-,0.02,Rain,Light Rain,250,2014-02-12 07:16:00
11:35 PM,35.1,32.0,89,29.80,2.5,WSW,5.8,-,0.03,Rain,Light Rain,250,2014-02-12 07:35:00
11:53 PM,35.1,32.0,89,29.80,2.5,Calm,Calm,-,0.04,Rain,Light Rain,0,2014-02-12 07:53:00